Regional Weather Roundup
Issued by NWS Wilmington, NC

Home | Current Version | Previous Version | Text Only | Print | Product List | Glossary On
Versions: 1 2 3 4 5 6 7 8 9 10 11 12 13 14 15 16 17 18 19 20 21 22 23 24 25 26 27 28 29 30 31 32 33 34 35 36 37 38 39 40 41 42 43 44 45 46 47 48 49 50
000
ASUS42 KILM 032010
RWRILM
RWRILM
REGIONAL HOURLY WEATHER ROUNDUP
NATIONAL WEATHER SERVICE WILMINGTON NC
300 PM EST TUE MAR 03 2015

NOTE: "FAIR" INDICATES FEW OR NO CLOUDS BELOW 12,000 FEET WITH NO
SIGNIFICANT WEATHER AND/OR OBSTRUCTIONS TO VISIBILITY.

...............WFO WILMINGTON COUNTY WARNING AREA...............

......COASTAL NC AND SC COUNTIES......

CITY           SKY/WX    TMP DP  RH WIND       PRES   REMARKS
WILMINGTON     CLOUDY    47  39  74 E6        30.23F
SOUTHPORT      CLOUDY    48  43  81 NE8       30.21F
N MYRTLE BEACH CLOUDY    53  44  71 N7        30.20F
MYRTLE BEACH   CLOUDY    52  45  76 NE10      30.23F FOG

......INLAND NC AND SC COUNTIES.......

CITY           SKY/WX    TMP DP  RH WIND       PRES   REMARKS
LUMBERTON      CLOUDY    43  35  73 NE8       30.24F
ELIZABETHTOWN  CLOUDY    42  36  76 CALM      30.24S
WHITEVILLE     CLOUDY    46  38  72 NE3       30.22F
FLORENCE       CLOUDY    43  37  79 NE7       30.22F
DARLINGTON     CLOUDY    39  36  87 N7        30.25  WCI  34

....................REST OF NORTH CAROLINA......................

.........EASTERN NC.........

CITY           SKY/WX    TMP DP  RH WIND       PRES   REMARKS
CAPE HATTERAS  CLOUDY    46  40  79 NE3       30.26F
JACKSONVILLE   CLOUDY    43  39  87 E7        30.25F
MOREHEAD CITY  CLOUDY    47  41  80 NE8       30.24F
KENANSVILLE    CLOUDY    40  39  97 CALM      30.25F FOG
NEW BERN       CLOUDY    48  34  58 E7        30.25F
ELIZABETH CITY CLOUDY    43  32  65 E5        30.26F

.........CENTRAL NC.........

CITY           SKY/WX    TMP DP  RH WIND       PRES   REMARKS
RALEIGH DURHAM DRIZZLE   36  30  79 CALM      30.24F FOG
ROCKY MOUNT    CLOUDY    41  29  62 SE5       30.24F
ROANOKE RAPIDS NOT AVBL
FAYETTEVILLE   LGT RAIN  38  36  92 NE5       30.24F FOG     WCI  34
HOFFMAN        LGT RAIN  37  37 100 N3        30.27F FOG

.........WESTERN NC.........

CITY           SKY/WX    TMP DP  RH WIND       PRES   REMARKS
CHARLOTTE      CLOUDY    41  36  82 N5        30.23F
GREENSBORO     DRIZZLE   36  33  89 CALM      30.22F
HICKORY        NOT AVBL
BOONE          NOT AVBL
ASHEVILLE      NOT AVBL

.....................REST OF SOUTH CAROLINA.....................

.........EASTERN SC.........

CITY           SKY/WX    TMP DP  RH WIND       PRES   REMARKS
CHARLESTON     CLOUDY    62  51  67 E7        30.17F
BEAUFORT MCAS  PTSUNNY   68  60  75 SE7       30.16F
HILTON HEAD    PTSUNNY   61  55  82 NE5       30.19F

.........CENTRAL SC.........

CITY           SKY/WX    TMP DP  RH WIND       PRES   REMARKS
COLUMBIA       DRIZZLE   45  45 100 E6        30.21F FOG
ORANGEBURG     CLOUDY    49  45  86 E6        30.20F
SUMTER SHAW    CLOUDY    43  41  93 N7        30.21S FOG

.........WESTERN SC.........

CITY           SKY/WX    TMP DP  RH WIND       PRES   REMARKS
GREENVILLE     NOT AVBL
ROCK HILL      CLOUDY    41  39  93 E3        30.23F FOG
ANDERSON       CLOUDY    45  43  93 NE7       30.19F
CLEMSON        NOT AVBL
GREENWOOD      LGT RAIN  46  44  93 NE5       30.21F


...................COASTAL AND OFFSHORE REPORTS..................

................LOCAL PIERS AND NC RESERVE................


STATION/POSITION TIME  SKY/WX   TEMP    WIND        PRES    VSBY
                                AIR SEA DIR/SP/G
                 (UTC)          (F)     (DEG/KT/KT) (MB)    (MI)
JOHNY MRCER PIER 2000            44 48   50/ 12/ 13 1022.8F
NC RESRV MASNBRO 1900            44      40/ 10     1024.0S
OCEAN CREST PIER 2000            50 47   20/  8/  9 1022.1F
SPRINGMAID  PIER 2000            47 45   20/  7/  8 1022.8F


................COASTAL AND OFFSHORE BUOYS................


STATION/POSITION TIME  SKY/WX   TEMP    WIND        PRES    VSBY
                                AIR SEA DIR/SP/G
                 (UTC)          (F)     (DEG/KT/KT) (MB)    (MI)
DIMNDSHOAL 41025 NOT AVBL
CAPE LOOKOUT     2000            46      20/  8/ 10 1023.8F
ONSLOW BAY 41036 NOT AVBL
5 WRITEBCH 41038 NOT AVBL
MASONBORO  41110 2000               46                N/A
WVE H/P(F/S)=  4/ 5 WND WVE H/P(F/S)=  3/ 5

WILM HARBR 41108 2000               48                N/A
WVE H/P(F/S)=  3/ 6 WND WVE H/P(F/S)=  3/ 6

27WRITEBCH 41037 NOT AVBL
FRYING PAN 41013 1900            63 60  130/ 14/ 16 1023.4F
WVE H/P(F/S)=  5/ 6 WND WVE H/P(F/S)=  5/ 6 SWL H/P/D(F/S/D)=  3/110/ 8

SUNST NRSH 41024 1900            49      70/  8/ 10   N/A
CAPRS NRSH 41029 NOT AVBL
EDISTO     41004 2000            70 69  160/  4/  4 1021.1F
WVE H/P(F/S)=  6/ 7 WND WVE H/P(F/S)=  2/ 4 SWL H/P/D(F/S/D)=  5/ 7



..........OFFSHORE BUOYS BEYOND 100 NM OFFSHORE...........
.....IN A TRIANGLE---HAT TO BERMUDA TO BAHAMAS TO HAT.....


STATION/POSITION TIME  SKY/WX   TEMP    WIND        PRES    VSBY
                                AIR SEA DIR/SP/G
                 (UTC)          (F)     (DEG/KT/KT) (MB)    (MI)
150E HAT   41001 NOT AVBL
W BERMUDA  41048 1940            63 69   80/ 10/ 14 1024.9F
WVE H/P(F/S)=  7/ 9 WND WVE H/P(F/S)=  2/ 5 SWL H/P/D(F/S/D)=  7/350/ 9

ATLANTIC S 41049 NOT AVBL
E BAHAMAS  41046 1950            76 78   60/ 14/ 17 1020.5F
WVE H/P(F/S)=  6/ 8 WND WVE H/P(F/S)=  3/ 6 SWL H/P/D(F/S/D)=  5/ 80/ 8

NE BAHAMAS 41047 1946            72 74   60/ 10/ 14 1022.7F
WVE H/P(F/S)=  5/ 9 WND WVE H/P(F/S)=  2/ 4 SWL H/P/D(F/S/D)=  5/110/ 9

120E CANVRL41010 2000            73 75  140/ 12/ 14 1022.3S
WVE H/P(F/S)=  4/ 9 WND WVE H/P(F/S)=  2/ 5 SWL H/P/D(F/S/D)=  3/100/ 9


END



USA.gov is the U.S. government's official web portal to all federal, state and local government web resources and services.